Date String (YYYY-MM-DD hh:mm:ss) UTC,Instrument flags,absolute air pressure of the measurement (hPa),sample flow rate (lpm),inlet stack bypass flow (lpm),air temperature of the measurement (°C),ambient temperature measured by the external sensor (°C),aerosol sample conditioner tube jacket temperature (°C),OPC LED temperature (°C),internal box temperature (°C),relative humidity of the measurement (%),span deviation,mass concentration of particles derived from Lorenz-Mie calculation of OPC scattering (μg/m³),mass concentration of particles derived from Lorenz-Mie calculation of OPC scattering (μg/m³),mass concentration of particles derived from Lorenz-Mie calculation of OPC scattering (μg/m³)
DateTimeUTC,F1_M11,P_M11,Q1_M11,Q2_M11,T1_M11,T2_M11,T3_M11,T4_M11,T5_M11,U1_M11,ZSPAN_M11,X0_M11,X2_M11,X1_M11
2023-11-09 04:00:00,SystemResetWarning,0835.3,5.00,000.00,020.8,019.7,000.0,029.3,022.0,23.7,0000.0,0005.02,0003.35,0002.98
2023-11-09 04:01:00,SystemResetWarning,0835.3,5.00,000.00,020.8,019.7,000.0,029.3,022.0,23.6,0000.0,0005.08,0003.36,0002.95
2023-11-09 04:02:00,SystemResetWarning,0835.2,5.00,000.00,020.8,019.7,000.0,029.3,022.0,23.6,0000.0,0005.04,0003.34,0002.91
2023-11-09 04:03:00,SystemResetWarning,0835.2,5.01,000.00,020.8,019.7,000.0,029.3,021.9,23.6,0000.0,0005.15,0003.35,0002.90
2023-11-09 04:04:00,SystemResetWarning,0835.2,5.00,000.00,020.7,019.7,000.0,029.3,021.8,23.6,0000.0,0004.96,0003.31,0002.88
2023-11-09 04:05:00,SystemResetWarning,0835.2,5.00,000.00,020.7,019.7,000.0,029.2,021.8,23.7,0000.0,0005.40,0003.30,0002.86
2023-11-09 04:06:00,SystemResetWarning,0835.2,5.00,000.00,020.7,019.6,000.0,029.2,021.8,23.8,0000.0,0005.57,0003.28,0002.82
2023-11-09 04:07:00,SystemResetWarning,0835.3,5.00,000.00,020.7,019.6,000.0,029.2,021.9,23.8,0000.0,0005.44,0003.23,0002.77
2023-11-09 04:08:00,SystemResetWarning,0835.3,5.00,000.00,020.7,019.6,000.0,029.2,021.8,23.8,0000.0,0005.38,0003.21,0002.71
2023-11-09 04:09:00,SystemResetWarning,0835.3,5.00,000.00,020.6,019.6,000.0,029.2,021.7,23.9,0000.0,0005.36,0003.18,0002.66
2023-11-09 04:10:00,SystemResetWarning,0835.2,4.99,000.00,020.6,019.5,000.0,029.1,021.8,24.0,0000.0,0005.13,0003.11,0002.59
2023-11-09 04:11:00,SystemResetWarning,0835.3,5.00,000.00,020.6,019.5,000.0,029.1,021.7,24.0,0000.0,0005.13,0003.08,0002.54
2023-11-09 04:12:00,SystemResetWarning,0835.3,5.00,000.00,020.6,019.5,000.0,029.1,021.6,24.1,0000.0,0004.97,0002.99,0002.47
2023-11-09 04:13:00,SystemResetWarning,0835.3,5.00,000.00,020.6,019.5,000.0,029.1,021.7,24.1,0000.0,0005.71,0002.94,0002.41
2023-11-09 04:14:00,SystemResetWarning,0835.3,5.01,000.00,020.5,019.5,000.0,029.1,021.6,24.1,0000.0,0005.63,0002.87,0002.36
2023-11-09 04:15:00,SystemResetWarning,0835.3,5.00,000.00,020.5,019.5,000.0,029.1,021.6,24.1,0000.0,0005.61,0002.83,0002.32
2023-11-09 04:16:00,SystemResetWarning,0835.3,5.00,000.00,020.5,019.5,000.0,029.0,021.6,24.2,0000.0,0005.04,0002.80,0002.25
2023-11-09 04:17:00,SystemResetWarning,0835.4,5.00,000.00,020.5,019.4,000.0,029.0,021.6,24.2,0000.0,0004.70,0002.73,0002.21
2023-11-09 04:18:00,SystemResetWarning,0835.3,5.00,000.00,020.5,019.4,000.0,029.0,021.6,24.1,0000.0,0004.71,0002.71,0002.16
2023-11-09 04:19:00,SystemResetWarning,0835.3,5.00,000.00,020.4,019.4,000.0,029.0,021.5,24.2,0000.0,0004.50,0002.61,0002.13
2023-11-09 04:20:00,SystemResetWarning,0835.3,5.01,000.00,020.4,019.4,000.0,029.0,021.5,24.2,0000.0,0004.41,0002.56,0002.09
2023-11-09 04:21:00,SystemResetWarning,0835.3,5.00,000.00,020.4,019.4,000.0,028.9,021.5,24.2,0000.0,0004.48,0002.56,0002.05
2023-11-09 04:22:00,SystemResetWarning,0835.4,5.00,000.00,020.4,019.4,000.0,028.9,021.5,24.2,0000.0,0004.34,0002.50,0002.03
2023-11-09 04:23:00,SystemResetWarning,0835.4,5.00,000.00,020.3,019.3,000.0,028.9,021.4,24.2,0000.0,0004.45,0002.49,0001.99
2023-11-09 04:24:00,SystemResetWarning,0835.4,5.00,000.00,020.3,019.3,000.0,028.9,021.5,24.3,0000.0,0003.64,0002.43,0001.95
2023-11-09 04:25:00,SystemResetWarning,0835.3,5.00,000.00,020.3,019.3,000.0,028.9,021.4,24.3,0000.0,0003.27,0002.32,0001.90
2023-11-09 04:26:00,SystemResetWarning,0835.4,5.00,000.00,020.3,019.3,000.0,028.8,021.3,24.4,0000.0,0003.19,0002.26,0001.85
2023-11-09 04:27:00,SystemResetWarning,0835.4,5.00,000.00,020.3,019.3,000.0,028.8,021.3,24.4,0000.0,0003.15,0002.19,0001.81
2023-11-09 04:28:00,SystemResetWarning,0835.5,5.00,000.00,020.3,019.3,000.0,028.8,021.4,24.5,0000.0,0003.34,0002.22,0001.78
2023-11-09 04:29:00,SystemResetWarning,0835.5,4.99,000.00,020.2,019.3,000.0,028.8,021.4,24.5,0000.0,0003.33,0002.20,0001.76
2023-11-09 04:30:00,SystemResetWarning,0835.5,4.99,000.00,020.2,019.2,000.0,028.8,021.3,24.6,0000.0,0003.35,0002.21,0001.75
2023-11-09 04:31:00,SystemResetWarning,0835.4,5.00,000.00,020.2,019.2,000.0,028.8,021.3,24.7,0000.0,0003.31,0002.19,0001.74
2023-11-09 04:32:00,SystemResetWarning,0835.5,5.00,000.00,020.2,019.3,000.0,028.7,021.3,24.7,0000.0,0003.17,0002.14,0001.74
2023-11-09 04:33:00,SystemResetWarning,0835.4,5.00,000.00,020.2,019.3,000.0,028.7,021.2,24.8,0000.0,0003.24,0002.16,0001.74
2023-11-09 04:34:00,SystemResetWarning,0835.4,5.00,000.00,020.1,019.3,000.0,028.7,021.1,24.8,0000.0,0003.20,0002.19,0001.76
2023-11-09 04:35:00,SystemResetWarning,0835.5,5.00,000.00,020.1,019.3,000.0,028.7,021.1,24.9,0000.0,0003.38,0002.23,0001.79
2023-11-09 04:36:00,SystemResetWarning,0835.3,5.00,000.00,020.1,019.3,000.0,028.7,021.1,24.9,0000.0,0003.52,0002.30,0001.83
2023-11-09 04:37:00,SystemResetWarning,0835.4,4.99,000.00,020.1,019.2,000.0,028.7,021.1,24.9,0000.0,0003.58,0002.36,0001.89
2023-11-09 04:38:00,SystemResetWarning,0835.3,5.00,000.00,020.1,019.2,000.0,028.6,021.0,25.0,0000.0,0003.82,0002.37,0001.91
2023-11-09 04:39:00,SystemResetWarning,0835.4,5.01,000.00,020.0,019.3,000.0,028.6,021.0,25.0,0000.0,0003.95,0002.34,0001.94
2023-11-09 04:40:00,SystemResetWarning,0835.3,5.00,000.00,020.0,019.2,000.0,028.6,021.0,25.0,0000.0,0004.09,0002.41,0001.98
2023-11-09 04:41:00,SystemResetWarning,0835.3,5.01,000.00,020.0,019.2,000.0,028.6,021.0,25.1,0000.0,0004.48,0002.47,0002.01
2023-11-09 04:42:00,SystemResetWarning,0835.3,4.99,000.00,020.0,019.2,000.0,028.5,021.0,25.1,0000.0,0004.68,0002.54,0002.03
2023-11-09 04:43:00,SystemResetWarning,0835.3,5.00,000.00,020.0,019.2,000.0,028.5,021.0,25.1,0000.0,0004.84,0002.60,0002.06
2023-11-09 04:44:00,SystemResetWarning,0835.3,5.00,000.00,019.9,019.2,000.0,028.5,021.0,25.2,0000.0,0005.75,0002.61,0002.07
2023-11-09 04:45:00,SystemResetWarning,0835.3,5.00,000.00,019.9,019.2,000.0,028.5,020.9,25.2,0000.0,0005.79,0002.58,0002.07
2023-11-09 04:46:00,SystemResetWarning,0835.3,5.00,000.00,019.9,019.2,000.0,028.5,020.9,25.2,0000.0,0005.75,0002.59,0002.08
2023-11-09 04:47:00,SystemResetWarning,0835.5,5.00,000.00,019.9,019.2,000.0,028.5,020.9,25.2,0000.0,0006.69,0002.63,0002.10
2023-11-09 04:48:00,SystemResetWarning,0835.3,5.01,000.00,019.9,019.2,000.0,028.4,020.9,25.2,0000.0,0006.89,0002.60,0002.10
2023-11-09 04:49:00,SystemResetWarning,0835.3,5.00,000.00,019.9,019.2,000.0,028.4,020.9,25.3,0000.0,0006.71,0002.62,0002.11
2023-11-09 04:50:00,SystemResetWarning,0835.3,5.00,000.00,019.9,019.1,000.0,028.4,021.0,25.3,0000.0,0006.37,0002.63,0002.12
2023-11-09 04:51:00,SystemResetWarning,0835.3,4.99,000.00,019.9,019.1,000.0,028.4,020.9,25.3,0000.0,0006.30,0002.59,0002.11
2023-11-09 04:52:00,SystemResetWarning,0835.3,4.99,000.00,019.9,019.1,000.0,028.4,020.9,25.3,0000.0,0005.96,0002.55,0002.10
2023-11-09 04:53:00,SystemResetWarning,0835.3,5.00,000.00,019.8,019.1,000.0,028.4,020.9,25.2,0000.0,0005.84,0002.55,0002.10
2023-11-09 04:54:00,SystemResetWarning,0835.3,5.00,000.00,019.8,019.1,000.0,028.3,020.8,25.2,0000.0,0005.94,0002.54,0002.09
2023-11-09 04:55:00,SystemResetWarning,0835.3,5.01,000.00,019.8,019.0,000.0,028.3,020.8,25.2,0000.0,0005.05,0002.51,0002.08
2023-11-09 04:56:00,SystemResetWarning,0835.4,5.01,000.00,019.8,019.0,000.0,028.3,020.8,25.2,0000.0,0004.82,0002.52,0002.08
2023-11-09 04:57:00,SystemResetWarning,0835.4,5.00,000.00,019.8,019.0,000.0,028.3,020.8,25.2,0000.0,0004.76,0002.51,0002.07
2023-11-09 04:58:00,SystemResetWarning,0835.4,4.99,000.00,019.8,019.0,000.0,028.3,020.8,25.2,0000.0,0003.84,0002.47,0002.05
2023-11-09 04:59:00,SystemResetWarning,0835.5,4.99,000.00,019.8,019.0,000.0,028.3,020.8,25.1,0000.0,0003.56,0002.48,0002.04
